Aprizesat-2

operational
NORAD ID: 28366 Int'l Des: 2004-025 Owner: SPQ Country: US
LEORETROGRADESSO

About Aprizesat-2

Description loading...

Live Position

Loading 3D Globe...

Upcoming Passes

Altitude History

Altitude vs Time

uPlot chart will show altitude changes over time

Two-Line Element Set

1 28366U 04025A 26063.00893110 .00000483 00000-0 16323-3 0 9998
2 28366 98.0901 234.9972 0105127 207.0277 152.5415 14.37983329136520
Epoch: Mar 4, 2026 • Age: 19 hours

Current Status

Altitude 745.5 km
Velocity 7.50 km/s
Sub-Earth Point 44.85°N, 26.97°W
Launch Date Jun 29, 2004
Age 21.6 years
Type other

Technical Details

Classification Payload
Mass 11.00 kg
Dry Mass 11.00 kg
Total Mass 11.00 kg
Length 0.20 m
Diameter 0.20 m
Span 0.20 m
Shape Box + Ant
Manufacturer SPQ
Bus Type Aprize
Phase Status In Orbit
Owner/State SPQ/US

Large Constellations

Loading constellations...